Regional Weather Roundup
Issued by NWS

Home | Current Version | Previous Version | Graphics & Text | Print | Product List | Glossary On
Versions: 1 2 3 4 5 6 7 8 9 10 11 12 13 14 15 16 17 18 19 20 21 22 23 24 25 26 27 28
000
ASUS45 KBOI 190910
RWRID

IDAHO REGIONAL WEATHER ROUNDUP
NATIONAL WEATHER SERVICE BOISE ID
200 AM MST MON FEB 19 2018

NOTE: "FAIR" INDICATES FEW OR NO CLOUDS BELOW 12000 FEET
WITH NO SIGNIFICANT WEATHER AND/OR OBSTRUCTIONS TO VISIBILITY

IDZ012-014-191000-
SOUTHWEST IDAHO


CITY           SKY/WX    TMP DP  RH WIND       PRES   REMARKS
BOISE          CLEAR     22  18  85 CALM      29.65R
CALDWELL       CLEAR     23  18  81 CALM      29.68R
MOUNTAIN HOME  CLOUDY    25  25 100 NW7       29.63S WCI  17
$$

IDZ016-017-191000-
SOUTHCENTRAL IDAHO


CITY           SKY/WX    TMP DP  RH WIND       PRES   REMARKS
BURLEY         PTCLDY    17  12  80 S7        29.55S WCI   8
JEROME         CLEAR     23  19  85 SW10      29.57S WCI  12
TWIN FALLS     PTCLDY    19  13  77 SW15      29.57S WCI   5
$$

IDZ019>023-191000-
SOUTHEAST IDAHO


CITY           SKY/WX    TMP DP  RH WIND       PRES   REMARKS
IDAHO FALLS    CLOUDY    19  10  68 NW15G24   29.54R WCI   5
POCATELLO      CLOUDY    26  18  71 SW14      29.56R WCI  14
REXBURG        CLOUDY    20  13  74 N7        29.51R WCI  11
$$

IDZ006-010-011-018-031-032-191000-
CENTRAL IDAHO MOUNTAINS


CITY           SKY/WX    TMP DP  RH WIND       PRES   REMARKS
MCCALL         PTCLDY    11  10  96 CALM      29.52S FOG
HAILEY         CLEAR     14   7  73 NW9       29.51S WCI   2
STANLEY          N/A     -2  -6  83 SE5       29.49S WCI -12
SALMON         CLOUDY    14   4  64 N12G17    29.67R WCI   0
CHALLIS        CLOUDY    17   9  70 NW7       29.53R WCI   8
$$

IDZ002-004-006-007-026-191000-
NORTHERN IDAHO


CITY           SKY/WX    TMP DP  RH WIND       PRES   REMARKS
LEWISTON       CLOUDY    28  19  69 NE10      29.81R WCI  19
LOWELL           N/A     23  12  62 N6        29.84R WCI  16
COEUR D`ALENE  CLOUDY    10   0  63 NE18      29.89R WCI  -8
MULLAN PASS    CLOUDY    -4  -7  87 VRB7      29.58S WCI -18
$$




USA.gov is the U.S. government's official web portal to all federal, state and local government web resources and services.